Overview Statistics Trail Chart Weather Telemetry Raw packets
 

This is the latest recevied weather packets stored in our database for station/object KC1TEM-13. If no packets are shown the sender has not sent any weather packets the latest 10 day(s).

<< 111 112 113 114 >>
Time Temp. Humidity Pressure Rain* Wind** Luminosity Snow
1787773424 26.67° C 55% 1017.6 hPa 0 mm - 98 W/m² -
1787773124 27.22° C 52% 1017.6 hPa 0 mm - 72 W/m² -
1787772820 28.33° C 50% 1017.5 hPa 0 mm - 83 W/m² -
1787772519 29.44° C 45% 1017.6 hPa 0 mm - 598 W/m² -
1787772213 28.89° C 47% 1017.7 hPa 0 mm - 633 W/m² -
1787771913 28.33° C 47% 1017.8 hPa 0 mm - 376 W/m² -
1787771607 27.78° C 54% 1017.7 hPa 0 mm - 659 W/m² -
1787771307 28.33° C 53% 1017.6 hPa 0 mm - 642 W/m² -
1787771002 28.33° C 47% 1017.6 hPa 0 mm - 617 W/m² -
1787770701 27.78° C 48% 1017.9 hPa 0 mm - 591 W/m² -
1787770395 27.78° C 48% 1017.9 hPa 0 mm - 696 W/m² -
1787770094 27.78° C 50% 1017.9 hPa 0 mm - 715 W/m² -
1787769789 26.67° C 56% 1017.9 hPa 0 mm - 728 W/m² -
1787769488 27.22° C 52% 1018 hPa 0 mm - 119 W/m² -
1787769183 27.22° C 54% 1018 hPa 0 mm - 743 W/m² -
1787768882 28.33° C 49% 1017.9 hPa 0 mm - 119 W/m² -
1787768579 28.33° C 48% 1017.9 hPa 0 mm - 782 W/m² -
1787768274 28.33° C 51% 1018 hPa 0 mm - 769 W/m² -
1787767971 28.89° C 47% 1017.8 hPa 0 mm - 824 W/m² -
1787767665 27.78° C 48% 1018.1 hPa 0 mm - 768 W/m² -
1787767364 27.78° C 48% 1018 hPa 0 mm - 262 W/m² -
1787767064 27.22° C 54% 1018.1 hPa 0 mm - 822 W/m² -
1787766762 27.22° C 54% 1018.1 hPa 0 mm - 708 W/m² -

* Rain latest hour (hover to see other rain measurements)
** Current wind speed in m/s (hover to see current wind gust speed)